Theta_e
312 312 312 313 312 311 311 310 309 308 308 308 306 310 302 299 297 307 309 310 307 301 296 296 297 295 296 299 297 298 297 296 298 296 297 296 299 297 297 296 296 297 297 298 296 297 295 299 299 302 303 302 302 304 306 308 310 311 310 311 312 316 307 305 306 311 311 313 314 314 314 313 310 310 311 310 307 308 307 306 309 305 305 302 303 302 307
312 312 312 312 312 311 311 310 309 309 308 309 309 305 300 300 299 302 308 310 307 299 289 291 293 294 297 297 296 298 297 297 295 295 296 296 296 294 294 297 298 295 298 297 295 298 292 300 300 300 304 302 304 305 306 307 307 307 308 307 313 306 308 307 303 304 305 307 310 310 312 311 308 308 309 310 311 311 310 311 312 306 306 305 302 298 304
312 312 312 312 312 311 310 309 309 309 309 310 309 302 301 300 302 302 303 308 305 297 296 294 293 293 295 294 293 294 295 297 297 296 295 298 297 295 294 297 297 296 299 296 298 299 297 295 302 301 300 302 305 305 305 306 306 307 309 311 310 306 307 305 300 298 296 296 297 299 302 305 308 310 310 310 309 310 308 304 307 300 310 310 304 304 311
312 312 312 312 312 311 310 310 310 310 309 309 309 305 301 296 291 297 300 302 303 302 302 299 295 294 295 292 294 295 292 294 296 298 294 297 297 297 297 296 296 296 296 295 295 296 300 296 295 297 299 302 304 304 305 305 305 308 311 311 311 307 309 308 306 305 302 306 309 311 311 308 304 307 309 309 310 311 311 309 306 302 308 307 310 311 311
312 312 312 311 311 310 311 310 310 310 309 309 308 306 302 299 293 292 291 297 300 296 298 297 297 294 296 290 293 291 292 293 293 298 292 296 295 296 296 293 291 292 293 293 294 296 297 299 297 296 296 298 302 305 304 305 306 308 309 309 309 308 304 307 308 308 310 309 310 309 310 307 307 307 307 309 309 309 309 306 304 313 307 300 311 315 311
312 312 312 312 311 311 310 310 310 309 309 308 310 300 301 292 296 297 299 291 289 292 293 297 296 297 297 293 295 290 289 292 290 295 296 297 298 292 295 295 294 293 291 293 291 295 294 296 293 297 297 297 301 302 304 304 306 307 306 309 308 306 303 307 308 307 309 312 307 309 309 310 309 309 308 308 309 309 307 308 309 311 306 304 312 315 313
312 312 312 312 311 311 311 311 310 309 309 308 309 298 300 299 298 297 301 292 295 295 296 296 296 294 295 293 294 291 290 289 292 292 293 295 293 294 287 292 294 294 294 292 290 292 289 290 293 294 293 295 297 298 302 304 305 305 305 307 309 306 304 307 308 307 309 309 308 310 307 309 308 309 309 310 309 309 308 309 310 310 311 312 314 315 312
312 312 312 312 311 311 311 311 311 310 308 309 305 301 296 295 294 294 299 298 296 296 296 296 295 293 294 289 291 292 291 290 293 294 293 288 290 294 291 292 293 294 294 294 289 291 292 291 288 293 294 293 297 295 297 296 303 305 302 304 308 304 303 306 307 305 306 309 309 308 308 307 307 309 309 309 309 310 310 309 310 311 310 311 311 314 313
312 312 312 312 312 311 311 311 311 309 309 306 302 300 302 301 302 302 295 291 294 296 296 295 294 291 293 291 293 293 293 292 294 293 296 293 290 293 292 294 293 294 294 294 293 294 294 294 293 295 294 290 296 293 295 299 297 302 302 304 304 305 303 305 305 301 302 306 305 306 307 306 306 307 308 308 308 307 309 308 310 309 309 310 310 310 311
312 312 312 312 312 312 311 310 311 309 308 305 304 298 304 303 305 304 298 291 296 293 295 296 293 290 293 292 294 293 294 295 295 291 295 296 297 295 293 295 293 293 293 293 295 296 296 296 297 297 298 299 299 300 299 300 300 300 300 304 301 303 301 301 301 298 300 304 306 305 305 305 302 303 307 309 309 310 311 312 313 312 312 309 307 309 316
312 312 312 312 312 312 312 311 312 311 309 305 302 301 302 300 298 299 299 291 293 294 293 293 292 294 295 296 295 297 296 295 295 289 291 295 296 297 296 295 293 291 292 295 300 301 300 300 300 300 299 299 299 300 300 300 301 301 300 299 301 302 301 300 305 298 299 303 304 305 301 295 297 309 312 311 309 309 308 308 310 312 312 312 314 315 318
312 312 313 312 312 312 312 312 312 310 308 308 308 303 306 305 302 299 295 288 290 295 293 291 292 295 295 296 296 295 294 295 294 298 293 295 296 298 297 296 296 289 297 302 301 302 302 302 301 301 300 299 300 300 300 299 301 304 302 299 299 299 301 300 303 299 299 302 302 298 293 295 309 311 313 313 312 311 310 310 311 312 313 313 312 314 315
312 312 312 312 312 311 312 312 312 311 309 312 309 302 307 310 303 298 295 292 289 292 290 292 296 296 296 296 295 296 297 297 297 297 297 296 295 296 298 297 295 296 302 299 300 299 295 294 296 296 297 298 298 298 298 298 298 300 301 302 300 298 298 300 299 301 301 300 298 291 293 306 308 310 312 315 313 312 311 308 311 312 313 313 312 314 315
313 313 312 312 312 312 312 312 312 312 310 310 307 305 307 307 300 298 295 291 290 294 295 293 295 294 295 295 295 295 297 296 297 298 295 297 295 296 298 299 301 303 302 302 299 298 295 296 290 292 292 295 294 293 296 298 299 298 299 300 301 300 299 299 296 302 295 298 298 297 306 303 306 307 309 311 309 310 308 304 308 313 314 315 314 315 316
312 312 312 312 312 312 312 313 313 313 312 309 309 308 308 307 306 301 300 295 289 293 295 288 292 294 295 296 296 294 295 296 295 294 298 299 296 298 299 301 304 303 303 300 296 297 293 292 286 287 290 289 286 288 296 293 298 300 300 300 301 302 297 300 295 297 300 297 296 297 297 295 301 309 314 316 315 314 315 311 309 316 316 317 316 316 319
312 312 312 312 313 313 313 313 313 312 311 308 310 308 309 310 308 306 300 295 292 286 293 296 297 295 294 295 296 294 293 294 295 295 294 295 296 298 301 303 303 304 302 299 298 295 293 289 286 287 286 288 292 291 290 294 294 298 299 299 299 300 301 300 297 296 298 296 294 294 294 299 308 309 312 316 318 317 318 311 305 316 318 321 319 318 320
312 312 312 312 312 312 313 313 313 312 311 308 309 308 306 310 307 304 299 296 294 289 299 300 299 297 295 295 297 296 297 293 294 290 291 291 295 296 298 302 304 302 300 298 296 295 292 291 292 290 290 292 289 289 294 293 292 294 297 297 296 296 296 296 294 294 296 296 294 294 300 300 306 310 312 314 316 315 312 299 301 320 322 321 321 319 322
312 312 312 312 312 313 313 313 313 313 311 311 310 306 306 311 310 307 301 296 292 293 298 301 298 294 293 295 294 297 298 296 297 298 295 296 297 296 297 298 297 300 303 295 296 291 289 289 286 286 286 294 295 295 287 292 290 292 292 293 291 292 293 294 291 293 294 294 295 298 301 307 308 311 314 313 314 312 302 296 310 321 323 324 322 321 324
311 312 312 312 313 313 313 313 313 313 313 310 312 310 307 310 310 308 303 298 294 289 298 301 302 298 300 301 299 298 298 297 296 293 294 292 294 298 299 299 300 294 300 293 294 289 288 290 294 289 287 292 294 289 294 290 291 297 296 292 292 293 293 293 294 292 292 294 293 294 300 307 309 315 314 314 307 299 300 314 323 323 322 324 323 323 325
311 312 312 312 312 312 313 313 313 313 313 311 310 305 307 310 310 308 302 295 297 294 297 299 300 298 301 298 296 295 297 297 297 295 294 291 299 299 295 291 298 296 294 295 288 292 290 286 290 295 290 290 293 296 292 293 297 294 295 298 294 294 291 290 290 294 294 296 293 292 287 304 308 309 311 310 303 311 316 318 321 321 321 322 324 324 327
311 311 312 312 312 313 312 313 313 313 313 313 310 308 305 310 310 311 311 305 298 292 294 302 303 301 301 300 301 300 298 295 296 293 297 296 300 296 287 288 292 294 292 294 286 288 289 287 289 291 295 293 293 293 289 293 293 299 298 296 295 302 293 293 294 297 290 290 290 291 300 310 310 309 304 313 314 315 319 317 318 321 321 323 324 326 329
311 312 312 312 312 312 312 313 313 313 313 313 311 310 303 309 311 311 311 309 300 296 299 304 305 304 305 305 305 305 303 302 303 303 298 296 300 297 297 297 297 297 298 298 293 292 294 293 294 291 287 291 297 292 295 290 288 296 300 299 290 300 296 300 294 303 297 294 297 308 308 310 312 312 311 313 316 316 317 319 320 320 323 328 326 326 329
311 311 312 312 312 312 313 313 313 312 313 313 312 309 306 308 308 311 311 301 304 305 306 304 305 305 307 308 309 310 309 309 307 305 304 298 296 298 297 297 297 301 302 301 295 294 294 295 291 295 292 294 292 292 294 293 290 294 292 298 297 303 303 306 302 299 305 305 305 308 308 309 310 311 312 311 313 315 315 315 317 323 325 326 326 327 329
311 311 312 312 312 312 312 313 312 312 312 313 311 308 308 311 312 309 306 304 299 297 300 303 300 298 300 301 305 309 309 307 308 308 308 304 295 296 300 301 301 301 301 304 305 298 297 297 296 297 291 296 298 291 287 287 291 296 294 294 298 301 302 300 297 302 296 292 305 305 306 308 308 310 312 312 312 313 314 316 320 322 323 323 326 328 328
311 311 312 312 312 312 312 312 312 312 312 312 312 313 313 310 312 310 303 295 296 295 290 295 298 303 306 307 308 306 307 309 310 309 307 306 303 298 297 302 304 300 300 303 306 302 301 295 296 296 291 298 299 290 296 293 292 299 291 294 295 296 304 298 299 299 297 297 303 306 308 308 308 308 309 310 312 313 315 318 319 320 321 322 324 327 328
311 311 312 312 312 312 312 312 312 311 311 311 312 310 308 309 313 313 310 307 305 300 291 291 296 306 308 305 303 305 308 307 306 306 306 306 306 306 304 305 304 307 305 304 303 300 299 298 298 297 294 294 301 294 294 298 297 301 296 294 299 301 302 294 299 297 300 302 303 304 305 306 307 308 310 311 311 315 316 318 318 318 319 321 323 325 326
311 311 311 312 312 312 312 312 311 311 311 311 311 312 312 313 315 311 306 304 298 292 295 290 297 302 304 303 307 308 308 307 307 306 305 306 305 305 305 304 302 302 301 300 302 300 299 297 296 295 298 298 302 299 300 297 297 295 294 298 302 299 295 299 299 295 294 295 299 303 297 298 303 306 308 311 315 314 314 315 316 317 318 319 320 322 326
311 311 311 312 311 311 311 311 311 311 310 311 312 313 316 314 314 315 314 310 302 294 296 296 297 301 305 302 306 308 308 308 307 306 305 304 305 304 303 302 302 299 299 298 295 295 295 293 293 299 299 301 297 295 301 300 299 296 296 298 301 297 299 298 295 295 294 301 303 305 305 305 306 308 310 311 313 313 312 313 315 317 318 319 319 321 325
311 311 311 311 311 311 311 311 311 311 311 309 314 313 311 314 317 316 314 313 309 302 299 299 302 300 295 301 307 306 307 307 306 306 305 304 304 304 303 303 301 300 299 298 297 297 296 296 298 296 296 301 297 294 297 292 292 290 296 301 302 303 304 302 301 302 302 305 305 306 305 303 306 309 310 311 312 312 312 313 314 315 316 318 319 322 323
311 311 311 311 310 310 310 311 311 311 311 314 313 308 304 305 314 313 314 312 310 305 296 294 292 298 306 305 304 305 305 306 306 305 304 304 303 303 304 303 302 302 300 298 297 293 296 296 298 299 301 304 296 296 293 294 293 295 303 302 303 305 305 305 306 303 301 306 307 307 306 307 308 309 310 311 312 313 311 312 313 315 316 317 318 320 323
311 310 310 310 310 310 310 311 311 310 310 313 309 301 299 296 305 313 311 311 312 305 299 298 293 300 299 306 306 304 305 305 305 304 304 304 304 304 305 304 303 302 297 298 297 296 297 294 295 297 300 301 299 295 292 292 291 294 300 303 303 304 304 305 306 307 307 306 307 308 308 307 308 308 308 310 311 312 312 313 315 316 316 317 318 320 323
310 310 310 310 310 310 311 310 310 311 315 312 308 306 306 307 312 314 313 311 312 304 298 293 294 295 296 299 303 307 306 306 306 305 305 305 303 305 304 303 300 302 300 297 298 297 296 297 295 296 295 299 298 294 294 292 290 293 300 302 305 305 306 306 306 306 307 308 307 305 304 305 307 305 305 310 311 313 313 314 315 316 318 319 320 322 326
310 310 309 309 310 310 310 310 310 313 314 310 308 309 308 307 309 311 312 313 308 302 302 297 292 295 295 298 303 305 307 305 304 304 301 305 301 303 300 303 302 300 304 299 295 293 298 297 298 295 298 301 296 295 292 290 292 297 298 299 300 302 303 305 306 307 307 308 307 302 302 303 306 309 310 311 311 311 312 313 314 315 317 318 320 323 328
310 310 309 309 310 311 312 311 311 309 309 312 309 310 312 309 310 309 313 311 306 305 303 296 292 293 294 303 297 302 308 301 300 303 298 308 308 303 303 301 302 297 300 296 298 297 299 298 296 297 299 297 299 294 288 292 297 298 299 300 301 302 303 304 305 305 306 307 308 308 307 308 309 310 310 310 311 313 314 314 315 314 314 315 318 322 328
309 309 310 309 309 310 310 311 313 313 310 309 311 313 313 309 310 311 310 308 298 295 295 295 296 291 292 294 294 299 305 301 299 303 299 304 308 302 304 298 301 294 298 304 299 297 295 296 300 293 290 298 293 288 292 296 298 300 300 301 303 303 303 302 303 305 307 308 308 308 309 309 308 307 308 309 310 311 311 312 314 316 315 315 318 325 329
309 310 311 311 310 311 313 312 315 313 310 309 309 313 312 311 310 312 311 309 304 296 293 292 293 288 289 286 288 297 304 299 303 303 304 305 303 306 304 301 292 298 304 299 293 298 292 301 296 288 295 290 287 291 293 296 295 296 298 299 302 302 302 303 304 306 307 308 308 308 309 309 308 308 309 310 311 312 312 312 314 317 317 317 324 327 325
309 310 310 309 312 311 312 313 316 313 311 315 314 314 313 311 311 311 308 306 307 306 297 291 288 290 291 291 295 299 302 293 303 300 302 299 297 303 301 298 292 299 298 295 295 292 297 305 294 289 288 287 291 296 297 298 299 299 300 301 303 304 305 306 307 307 306 307 307 307 308 307 309 309 310 310 311 313 312 312 315 317 317 320 325 324 323
309 309 314 314 315 312 311 313 312 313 312 311 312 308 306 307 301 300 301 298 303 302 297 295 288 291 297 294 292 302 301 298 304 297 300 304 299 299 302 296 296 297 287 291 294 303 299 296 292 289 290 296 298 300 301 302 304 306 307 308 308 308 307 308 309 308 306 305 305 307 308 308 308 310 309 310 312 312 314 315 319 320 321 324 323 322 323
310 317 316 320 315 309 309 314 317 312 313 313 312 307 304 306 302 297 297 299 299 295 298 293 291 295 293 293 298 306 300 297 297 300 295 303 298 293 301 291 298 297 289 290 294 301 290 292 292 290 288 293 296 298 303 304 306 307 308 310 312 315 317 315 313 310 308 308 309 311 310 308 309 310 311 311 312 314 315 318 320 321 323 324 324 325 325
322 318 317 314 312 315 319 315 314 314 313 307 308 305 302 307 303 298 305 296 295 299 298 294 299 297 296 295 296 299 305 301 295 295 297 300 306 295 299 298 298 293 286 287 292 300 290 286 290 289 288 293 296 301 303 304 304 306 308 309 313 315 316 315 316 316 313 313 313 314 315 316 316 314 313 313 315 315 317 318 321 324 321 323 323 322 325
317 318 317 313 316 318 321 319 318 315 311 308 306 307 306 298 307 307 306 301 299 304 307 305 300 298 299 299 299 296 307 307 305 305 301 297 305 302 298 290 300 290 288 289 299 299 294 290 289 287 288 296 298 300 303 303 304 305 307 309 311 311 313 316 317 318 318 316 316 314 315 315 315 317 319 320 318 316 318 322 324 324 324 322 323 325 326
318 316 316 319 322 322 320 320 315 313 310 309 300 293 300 302 305 305 305 297 298 304 307 309 304 304 304 303 305 305 306 309 307 306 301 297 303 300 293 298 298 290 287 297 303 297 292 287 287 287 294 299 301 302 302 302 304 305 305 307 308 309 309 311 312 313 313 312 312 313 313 315 317 319 318 317 316 319 321 323 325 325 324 325 323 323 325
304 309 315 319 321 317 317 304 310 310 294 295 294 291 298 294 298 299 301 306 308 305 306 315 312 314 313 312 309 309 308 311 306 305 302 297 304 302 297 293 292 288 292 304 296 290 287 286 286 290 297 299 301 302 303 304 305 305 306 306 306 307 308 307 308 309 311 311 310 311 311 312 313 316 318 320 322 323 323 324 324 323 323 325 324 324 324
321 321 320 315 309 310 311 292 307 304 296 297 295 290 297 295 298 301 298 299 306 306 307 305 306 307 305 312 310 308 310 309 308 307 306 310 304 298 297 291 292 300 307 296 292 286 286 288 291 296 299 301 302 304 304 305 304 305 306 306 306 306 306 306 307 307 308 309 309 309 309 309 310 312 313 319 321 321 322 322 323 322 322 322 321 320 323
314 309 305 304 299 305 300 290 304 297 291 296 298 298 300 296 299 301 298 304 306 302 309 309 308 308 305 309 314 309 309 307 311 304 300 306 299 299 296 292 299 299 294 288 289 288 289 287 295 298 299 301 303 304 306 306 307 306 306 306 306 306 305 305 305 306 306 307 308 308 307 307 307 309 310 311 313 315 316 316 318 318 317 318 318 319 321
310 303 300 295 291 297 297 292 294 292 300 302 300 302 302 303 305 303 307 308 308 307 305 306 308 307 303 306 304 302 307 306 303 302 304 303 296 293 299 305 299 291 290 289 285 283 285 290 296 299 302 303 304 306 307 306 309 308 306 304 306 307 307 307 306 306 306 307 307 307 307 307 307 307 307 309 310 310 311 312 314 313 314 314 315 316 317
307 311 305 299 294 297 306 294 296 300 302 303 304 305 304 306 307 308 309 311 310 309 308 310 309 307 302 302 304 303 304 303 299 301 304 297 295 298 302 295 287 287 284 283 285 286 290 295 299 303 305 305 305 306 307 308 308 307 307 306 307 306 308 307 307 306 307 308 307 307 307 307 307 307 308 308 308 309 311 310 311 311 312 311 312 312 313
299 308 305 293 292 297 296 301 306 305 306 306 306 307 307 309 307 305 309 310 311 311 308 308 307 308 306 309 306 299 301 302 300 299 302 299 300 295 291 292 288 290 290 287 288 294 295 299 302 303 303 304 305 305 305 307 308 308 308 308 308 308 308 308 307 307 308 307 307 307 307 307 307 307 307 306 307 307 308 309 309 309 309 310 310 310 309
312 301 298 296 302 302 302 305 304 301 303 305 306 306 305 305 304 306 308 311 309 309 310 308 306 306 302 305 303 301 297 303 295 293 300 298 293 288 288 285 286 286 293 295 297 299 299 300 302 303 303 303 304 304 304 305 306 307 308 308 309 309 310 309 309 310 310 308 308 309 308 308 308 308 307 307 306 306 308 308 308 308 309 310 309 309 309
301 301 306 301 303 303 305 306 303 300 302 303 304 303 305 304 304 307 310 309 309 309 310 308 308 303 302 302 295 297 296 301 298 296 296 293 294 294 292 286 288 290 293 297 298 299 302 303 304 302 303 303 304 304 304 304 305 305 305 307 308 309 309 310 309 310 310 309 309 309 309 310 309 308 307 307 307 308 308 308 308 308 308 309 309 309 309
309 300 303 308 303 301 303 298 298 298 300 301 302 303 304 303 304 306 309 308 308 307 305 301 302 299 296 295 293 290 292 301 298 294 293 294 296 294 289 287 291 296 298 303 303 304 304 305 307 305 304 304 305 305 305 305 305 305 304 305 306 307 308 308 309 309 309 309 310 310 309 309 310 311 311 311 309 308 307 308 309 308 308 309 309 308 307
301 299 302 305 307 306 305 305 304 303 302 303 303 305 306 304 306 308 310 309 306 302 299 302 300 297 292 291 294 299 302 298 294 296 293 296 299 294 293 294 297 300 300 301 303 305 305 305 308 308 307 305 305 305 306 306 306 306 306 305 305 305 305 306 307 307 308 308 309 309 309 309 310 309 309 308 307 307 306 305 306 306 307 307 307 307 307
Wind_Speed
16 17 17 16 15 16 17 18 19 20 21 14 13 13 8 8 9 10 8 11 13 11 5 5 5 6 7 9 6 7 7 9 8 11 10 10 6 9 10 13 15 14 15 15 14 14 12 14 13 8 7 6 7 10 12 11 9 5 7 15 17 3 8 9 13 14 14 18 18 20 21 21 21 20 19 17 17 18 13 10 8 10 11 12 9 8 4
16 17 16 15 14 14 15 16 17 19 18 13 13 11 8 10 9 7 7 11 10 7 7 8 7 7 9 10 11 5 8 9 10 10 10 7 9 11 9 12 11 16 18 17 14 10 11 12 17 10 5 1 7 7 10 14 5 4 4 4 7 13 12 12 10 11 11 15 16 17 19 19 16 17 20 20 18 18 16 11 8 10 12 13 10 10 8
15 15 15 14 13 13 14 14 16 17 18 15 11 10 10 9 7 4 7 9 7 5 7 7 8 9 11 12 12 10 8 6 9 11 10 7 7 10 8 10 13 13 15 17 16 15 15 13 9 7 12 3 8 4 8 9 8 8 9 11 9 7 12 14 14 16 16 16 17 18 20 21 15 18 22 24 24 22 16 15 11 8 8 13 10 8 5
14 15 15 13 14 13 13 13 14 16 16 17 12 9 10 10 10 8 8 9 7 3 7 5 8 9 9 11 9 10 10 7 10 8 10 4 9 8 8 7 10 11 15 13 12 15 15 14 8 9 7 8 3 4 7 7 9 11 16 14 8 7 8 15 16 13 13 4 4 10 17 14 19 21 23 24 24 22 18 12 12 13 8 8 8 6 11
14 14 15 13 13 13 13 12 13 14 16 13 11 10 8 8 7 10 10 9 4 9 8 8 8 8 10 8 8 12 11 8 7 8 9 9 10 9 2 6 9 9 13 13 14 15 17 17 14 11 11 10 12 3 8 6 6 15 12 3 5 5 10 14 21 24 6 7 5 10 9 19 21 20 23 23 25 24 22 17 15 10 9 10 9 12 5
16 16 15 14 13 13 12 11 11 12 14 16 9 9 8 7 7 9 6 8 9 10 7 9 9 11 10 8 8 8 11 9 9 8 7 11 10 10 1 4 7 10 9 12 10 12 17 14 11 14 12 12 11 9 8 5 6 9 6 4 5 6 12 14 14 25 19 9 7 7 6 14 14 23 22 25 24 26 25 21 18 14 12 8 11 11 11
17 17 17 16 13 13 12 11 10 10 13 13 8 8 7 7 8 8 9 10 9 11 13 12 11 12 9 7 9 8 8 10 9 8 10 10 4 5 8 8 10 11 9 7 9 11 10 7 13 10 12 13 12 8 5 6 3 7 5 3 3 5 8 12 19 15 17 10 11 8 9 9 8 12 22 22 23 25 25 22 20 18 12 11 7 15 17
18 18 17 17 14 13 12 12 8 7 11 11 8 7 9 7 8 8 9 10 12 11 9 9 9 9 5 5 3 6 9 10 10 8 9 10 2 3 7 10 11 11 10 8 8 10 11 10 10 12 13 15 9 12 12 13 10 8 6 5 2 5 6 9 6 10 17 15 11 9 10 5 7 11 14 21 23 21 22 22 21 19 16 14 11 7 9
18 18 18 17 16 14 13 12 8 5 6 8 4 7 7 8 7 7 9 12 8 9 9 8 8 8 6 4 6 9 10 11 10 10 8 10 6 8 9 10 11 9 11 10 10 9 10 11 11 12 13 11 13 9 9 13 11 6 6 3 6 6 4 4 7 10 11 13 13 11 10 9 13 13 9 9 17 23 21 19 18 18 17 16 15 13 10
20 19 19 19 17 15 13 13 8 4 2 6 4 7 6 8 8 7 6 10 11 10 10 9 7 8 4 4 8 8 11 11 9 10 4 6 7 4 7 10 9 10 10 12 10 8 9 12 12 12 13 14 13 12 12 11 9 6 7 7 7 4 5 5 9 9 10 14 14 12 9 9 12 16 14 14 12 8 9 10 11 12 10 12 12 8 3
21 20 20 20 18 18 17 14 12 6 5 6 5 6 7 7 8 7 5 10 11 9 10 9 8 6 9 8 11 10 10 10 8 8 6 8 11 6 9 11 9 8 10 9 9 10 11 12 14 13 14 16 17 13 12 13 11 10 7 8 6 5 5 8 5 10 11 13 15 13 12 17 15 9 13 14 14 14 13 12 12 10 9 7 6 6 6
22 22 21 20 19 19 18 15 13 10 8 8 5 7 6 6 8 7 6 6 12 11 9 10 9 9 12 11 11 11 10 10 11 8 12 11 12 11 10 10 9 8 7 7 10 11 13 14 16 16 17 16 16 17 17 17 14 10 9 9 8 7 5 6 1 6 10 9 5 9 17 18 3 6 12 15 16 14 16 14 13 13 14 14 13 12 9
22 23 22 21 21 20 18 17 14 13 9 7 6 9 5 4 5 5 8 8 10 11 11 12 12 13 13 12 9 10 11 12 12 12 12 12 11 10 8 9 10 9 7 10 11 11 12 11 10 12 13 14 15 16 17 17 16 14 12 9 8 7 4 5 5 7 8 8 11 11 10 3 9 8 4 5 14 20 18 18 18 17 14 12 14 14 12
23 23 23 24 23 21 21 19 17 15 13 7 7 10 7 5 5 5 5 6 10 10 12 14 13 9 10 10 10 12 11 11 10 10 12 8 9 11 10 8 8 9 9 8 10 10 10 7 7 7 10 10 11 14 17 17 16 15 15 13 9 9 7 6 7 5 8 5 10 10 7 2 5 6 7 5 7 8 13 14 16 18 16 13 9 9 11
26 26 25 24 23 22 21 19 16 16 15 8 8 9 6 6 4 5 4 6 10 13 11 11 10 11 13 12 10 10 9 8 8 8 9 8 10 6 8 8 8 9 9 9 7 7 8 7 9 8 6 10 11 11 12 13 15 18 15 13 11 8 9 3 5 9 8 8 12 11 12 10 11 8 5 4 7 9 8 11 8 8 12 13 13 6 1
25 24 24 23 23 22 21 20 17 16 15 8 7 9 7 8 7 6 5 6 5 9 8 6 10 13 12 12 11 10 8 7 7 8 9 6 4 7 8 7 7 8 9 8 7 7 8 7 8 6 7 6 8 9 10 11 11 15 16 15 13 11 10 10 10 8 10 10 13 12 12 10 4 12 11 8 3 6 6 6 9 3 4 4 7 9 9
25 25 24 24 24 23 22 21 19 16 16 11 7 6 8 10 9 7 6 6 6 12 12 16 14 12 10 9 7 5 5 7 7 8 7 7 8 10 10 7 8 10 9 8 6 7 7 8 7 6 6 4 4 6 8 9 11 13 16 16 16 13 10 10 11 12 12 12 13 12 8 7 8 1 8 8 3 6 5 9 10 9 4 4 3 4 2
27 25 24 25 23 22 22 21 21 19 16 15 8 5 5 8 10 8 6 8 7 9 12 14 11 8 7 7 9 9 8 7 7 5 8 7 9 6 7 7 8 8 5 7 4 4 8 8 5 5 5 1 6 7 6 2 9 10 14 13 12 12 11 11 13 12 12 14 12 10 11 5 5 7 6 6 3 5 10 9 8 7 7 5 4 2 2
27 26 25 26 24 22 22 21 19 19 18 13 8 6 7 8 9 9 6 7 7 8 6 9 11 13 13 11 10 10 8 10 8 8 7 7 2 7 11 11 9 6 4 5 5 6 6 4 3 2 4 1 2 3 5 8 4 8 10 14 13 13 10 9 11 13 13 13 12 11 9 8 9 8 6 8 6 10 5 6 6 3 4 5 2 5 3
26 25 24 25 24 22 20 20 19 18 18 15 9 6 3 9 12 14 10 9 8 13 12 11 10 15 12 12 10 9 8 8 7 8 7 8 5 11 10 5 7 7 6 4 9 3 6 4 4 4 3 3 1 4 6 8 7 4 5 6 9 12 11 11 12 10 10 12 14 13 12 6 4 5 12 8 10 4 4 9 6 2 3 1 4 7 7
27 26 25 24 22 21 21 19 18 18 18 15 10 6 4 8 11 10 10 9 8 10 11 11 13 13 11 11 11 13 12 12 9 8 8 9 7 7 7 5 4 4 3 3 6 2 3 3 5 4 2 2 3 5 3 4 5 7 8 7 8 4 8 10 11 9 10 12 13 8 4 5 5 4 4 8 10 5 7 7 6 7 6 8 8 6 9
27 25 24 23 22 22 21 20 18 17 17 16 12 7 6 7 12 12 11 7 8 12 10 8 9 12 14 16 15 15 16 16 14 10 9 9 6 7 8 10 10 6 4 6 6 3 4 4 6 4 4 5 4 5 5 6 5 2 8 6 9 4 7 5 5 2 7 6 6 5 6 5 6 6 4 4 9 7 7 8 6 7 8 10 7 8 10
25 26 24 24 23 22 20 19 18 16 16 15 10 4 6 5 9 10 8 10 8 10 11 12 13 15 16 18 17 15 14 12 12 11 10 9 8 7 8 8 7 4 5 5 6 6 6 7 8 7 6 4 5 7 6 7 7 1 3 5 7 4 5 5 7 10 9 12 11 9 6 3 4 7 6 10 10 9 9 10 9 8 9 9 9 12 13
26 24 24 23 23 22 21 20 19 16 14 14 10 7 5 5 6 7 8 9 8 8 10 12 11 8 8 9 7 9 12 12 10 10 8 9 10 7 6 6 6 5 5 2 2 5 6 7 6 6 7 5 6 7 5 4 5 3 7 6 6 7 6 8 8 6 4 5 4 7 7 5 8 9 11 10 10 10 11 10 9 10 12 13 12 12 14
25 24 24 23 23 21 21 20 19 16 14 14 12 6 5 4 6 8 9 9 6 7 7 6 9 11 12 11 10 9 8 7 8 10 10 10 12 10 7 3 3 6 7 6 4 7 6 7 7 5 7 4 4 7 6 8 5 5 7 5 5 6 1 8 10 10 9 10 11 12 10 13 12 8 9 9 9 10 9 10 11 12 12 12 13 14 14
24 24 24 24 23 22 22 20 20 17 14 13 11 6 5 4 6 7 6 5 1 1 6 9 10 8 5 7 9 9 8 8 8 10 11 12 13 13 12 9 9 6 6 5 6 7 7 7 6 7 7 6 3 8 8 6 8 8 10 9 6 4 1 7 4 8 10 12 14 15 15 17 17 14 12 12 9 9 10 11 13 13 14 14 13 12 13
24 23 23 23 22 22 22 21 19 15 11 9 7 6 5 3 8 10 8 5 4 4 7 9 8 8 7 11 9 9 11 12 11 12 12 13 13 12 11 11 10 9 8 8 7 8 7 8 8 9 7 7 6 9 9 10 10 10 10 9 7 9 11 10 10 11 12 11 10 10 12 11 10 13 14 8 9 10 12 12 13 13 13 13 15 15 13
23 23 23 23 22 23 23 20 18 14 9 8 6 5 3 4 7 9 8 6 8 7 6 7 8 9 11 15 11 9 9 10 10 11 10 11 12 12 11 11 10 9 8 8 8 8 8 9 9 7 8 8 9 10 9 11 11 11 12 12 9 11 11 11 12 12 12 11 12 11 11 12 11 13 13 11 10 11 14 13 14 14 13 13 14 15 14
23 23 23 22 22 22 21 19 16 11 7 6 4 3 2 2 3 7 8 8 7 7 7 9 10 10 7 5 2 6 5 7 8 9 9 11 11 10 10 10 10 8 8 8 8 9 9 9 9 9 7 6 6 9 8 9 10 12 12 9 9 10 11 13 14 15 16 15 13 10 9 12 12 15 14 13 11 12 14 15 15 15 14 13 13 13 14
23 23 23 21 21 21 20 17 11 6 6 5 4 2 2 2 5 6 8 7 5 3 5 6 6 3 7 8 7 6 6 7 8 9 11 9 9 8 8 9 9 8 8 8 7 9 8 8 9 9 11 8 10 9 11 10 12 13 12 12 11 11 12 13 12 14 14 13 13 13 13 13 13 14 15 14 13 13 14 16 16 16 15 15 15 14 13
23 23 22 20 20 20 16 11 5 1 3 3 3 2 1 2 3 4 7 7 5 4 3 4 7 8 10 6 5 4 4 6 6 7 9 9 9 9 7 7 7 7 8 8 8 9 8 9 9 10 9 9 9 9 11 11 14 14 17 13 10 11 11 12 12 14 15 14 14 15 15 16 15 15 17 17 17 16 16 17 17 16 16 16 15 15 13
24 21 19 18 18 17 10 2 1 4 3 2 2 4 4 5 3 2 4 5 5 5 4 5 6 4 4 3 2 4 7 8 8 7 7 6 8 7 8 8 8 8 8 8 7 6 9 9 10 10 10 7 7 8 9 12 15 17 20 17 11 11 11 11 12 13 14 14 14 15 18 19 18 19 15 14 14 13 14 16 17 16 15 14 14 14 13
20 18 16 16 14 8 3 1 6 3 3 7 10 8 7 4 4 4 5 5 4 2 2 4 5 5 4 4 6 5 7 5 6 5 7 6 6 5 7 7 7 7 8 7 5 5 4 7 8 10 9 7 7 7 11 15 17 20 19 18 18 17 18 17 17 17 16 15 15 16 17 17 18 19 19 18 18 16 16 18 19 16 15 14 15 14 12
18 16 14 11 7 2 5 5 5 7 8 3 1 2 3 5 2 2 5 3 0 2 2 4 4 5 7 6 6 5 10 6 4 4 4 4 4 3 1 3 4 4 5 8 5 6 6 6 8 8 6 7 5 6 11 15 18 20 20 21 21 21 19 21 20 19 18 17 18 19 19 18 17 17 19 19 18 16 16 16 16 17 16 15 15 13 10
15 12 9 8 6 4 9 10 6 2 4 3 3 4 5 7 4 5 6 1 1 1 2 2 2 5 6 5 4 4 9 8 5 5 6 2 1 2 1 3 3 3 2 5 5 6 7 4 3 5 6 3 5 8 10 13 16 17 20 24 25 22 22 22 22 19 19 18 17 16 16 17 18 19 19 20 19 18 17 18 17 16 15 14 13 11 6
13 9 4 3 7 5 5 7 5 1 1 4 4 5 10 9 6 6 2 3 3 2 2 3 2 3 3 4 5 3 6 6 5 6 2 3 1 3 1 2 4 5 2 3 4 3 5 1 0 5 1 3 6 5 11 16 19 22 23 23 23 20 21 24 22 22 20 19 19 18 18 18 20 21 19 19 19 18 18 18 17 16 16 14 10 4 2
9 2 5 8 6 3 5 4 5 5 4 4 8 12 12 9 4 3 1 2 1 1 2 1 1 2 2 4 4 4 5 5 4 3 2 3 4 2 0 1 2 1 1 3 3 4 4 1 4 6 4 3 7 11 17 19 20 21 23 22 19 19 22 23 25 24 23 22 22 20 18 19 20 18 18 18 17 17 18 19 17 16 16 14 8 2 3
6 7 7 5 6 1 6 6 5 2 8 16 15 8 5 4 2 3 3 2 1 3 2 2 2 2 2 3 3 4 4 3 2 4 1 1 3 3 1 1 2 2 3 3 3 1 4 3 3 3 4 5 11 13 16 16 17 16 13 13 16 18 20 23 20 18 19 18 18 18 19 20 20 18 18 18 18 18 16 15 15 14 13 10 7 5 6
3 5 6 6 5 6 6 5 4 1 3 7 4 4 3 3 2 2 2 3 2 2 4 3 2 2 3 3 4 1 2 5 6 4 5 3 3 3 2 3 2 2 2 3 1 1 3 2 2 3 4 10 13 20 20 18 19 16 16 15 14 9 5 9 15 17 17 16 15 14 15 15 17 17 16 17 15 15 15 15 12 11 7 7 8 8 7
5 3 3 6 6 5 5 7 8 5 3 4 4 5 2 3 3 3 3 2 2 2 3 1 2 4 6 3 5 3 0 3 5 7 6 3 2 2 1 1 2 2 3 3 2 2 3 4 4 3 8 10 14 18 18 20 19 20 19 17 17 18 17 12 5 8 14 14 13 12 11 12 14 15 15 15 14 14 13 11 12 9 8 9 9 10 9
6 4 2 4 5 1 2 4 6 3 3 3 2 1 4 4 5 3 3 7 7 3 2 2 3 3 5 4 4 3 2 1 1 2 3 3 2 3 2 3 1 1 2 4 3 1 3 3 5 8 14 14 15 17 17 19 21 22 23 22 21 19 17 16 16 10 6 2 2 4 7 11 15 13 9 7 8 13 13 10 7 9 12 14 12 8 8
4 4 3 4 4 3 3 5 3 3 3 3 2 2 4 3 4 5 5 8 8 6 5 5 6 6 1 6 1 2 2 2 2 1 2 3 3 4 3 1 2 2 5 4 5 4 4 5 7 10 12 14 15 16 18 19 21 24 26 25 22 22 24 21 20 22 19 16 12 12 13 12 7 1 6 9 12 11 9 8 6 8 11 14 15 11 6
7 5 3 3 5 2 2 4 6 3 2 3 3 2 4 4 8 7 5 3 3 5 7 4 6 1 3 2 3 4 2 1 2 2 3 2 1 1 3 3 2 6 3 4 5 4 6 7 10 12 11 12 14 16 17 17 17 19 23 23 23 22 23 23 22 20 18 15 14 13 10 11 12 10 5 3 5 10 11 9 8 6 4 10 14 13 13
4 4 3 1 2 4 3 2 5 3 1 3 5 5 8 7 8 8 5 6 5 6 9 10 11 10 5 1 6 1 3 4 3 4 1 1 2 5 3 4 5 0 3 3 5 9 7 4 11 12 14 13 13 14 15 16 16 15 18 22 24 27 26 25 24 23 21 20 19 19 21 20 19 14 11 11 10 11 14 14 12 11 13 13 12 13 12
3 4 3 2 2 3 2 1 4 4 6 8 6 8 8 9 7 7 7 4 4 7 7 8 8 9 9 3 5 1 5 5 2 3 5 4 7 8 6 6 5 6 7 8 5 4 3 10 12 12 15 15 14 14 15 15 14 15 15 17 20 22 25 25 23 21 19 21 22 24 22 20 18 17 20 19 18 18 16 14 11 13 12 14 14 13 13
4 3 3 4 3 2 3 2 3 5 7 7 9 9 9 8 9 8 5 4 4 5 6 7 8 7 7 8 7 7 6 6 5 6 5 5 7 10 8 4 3 8 9 7 9 12 10 9 10 11 12 13 12 13 13 14 14 14 16 19 19 20 18 19 19 20 20 21 20 20 19 18 18 19 18 16 22 21 17 15 15 17 17 15 15 15 15
2 3 1 2 4 4 5 5 8 8 8 9 9 9 9 8 8 7 7 8 6 6 6 5 5 5 6 6 4 5 5 4 6 6 4 7 8 5 5 7 6 4 7 10 8 6 7 9 8 10 12 12 13 13 13 13 14 16 16 16 18 19 19 19 19 19 18 18 20 19 17 18 18 17 17 21 21 18 17 19 19 21 18 14 15 16 16
3 1 2 4 5 4 9 9 7 7 9 10 10 10 9 9 8 10 9 8 8 5 4 5 4 3 3 2 2 6 5 5 6 7 6 5 3 5 4 7 5 3 2 3 8 7 7 8 10 9 10 11 11 13 14 13 14 16 16 15 16 17 18 19 19 18 18 18 17 16 16 16 17 18 19 20 21 19 18 17 17 19 18 17 18 17 16
5 3 3 3 5 7 8 8 7 9 10 10 10 11 11 11 11 10 11 9 8 6 5 6 6 5 4 4 6 6 6 6 5 4 5 6 5 4 4 4 5 5 6 5 5 6 8 8 9 11 12 13 13 13 13 13 13 13 14 15 15 14 14 15 16 16 16 15 13 14 14 15 14 14 15 16 17 15 15 15 16 15 16 17 16 15 17
4 5 6 5 6 8 8 8 9 10 10 10 11 11 11 11 11 11 10 10 8 7 4 3 5 5 7 5 3 4 6 7 6 3 7 9 7 6 5 6 6 5 7 9 8 7 7 5 6 10 12 13 15 14 14 14 14 14 14 14 14 14 15 16 15 16 15 13 14 15 15 13 12 12 14 14 12 11 13 13 13 14 14 13 13 14 15
3 3 6 8 9 9 8 10 11 11 10 11 11 11 11 11 12 12 11 10 9 7 7 8 6 5 4 4 3 2 4 4 6 8 6 6 5 5 6 6 8 10 7 5 4 6 7 7 8 9 12 12 13 14 14 14 14 14 15 15 14 14 14 16 17 16 16 15 15 16 16 14 12 12 11 11 12 12 13 13 13 12 12 12 12 13 13
3 5 8 8 9 9 9 8 8 8 9 9 9 10 10 11 11 11 11 9 9 9 10 8 6 5 4 5 5 4 3 3 5 6 8 6 4 5 5 5 6 7 8 8 7 7 8 8 9 10 10 11 11 12 12 13 14 14 15 15 14 14 14 14 15 15 15 15 15 15 14 15 14 12 12 14 13 13 12 11 11 12 11 10 11 13 14
Wind_Direction
344 342 340 339 339 340 338 340 339 340 340 341 354 324 329 342 329 313 345 348 324 324 334 330 331 349 354 330 303 339 317 325 338 331 347 326 329 309 298 307 320 293 289 272 275 288 283 277 257 283 43 62 29 10 334 333 287 265 237 208 215 86 233 242 235 186 207 203 200 193 213 207 201 205 212 207 209 203 213 209 200 207 197 212 209 232 165
341 338 338 337 338 338 338 337 339 339 348 344 334 335 339 318 317 329 14 335 322 326 350 347 346 343 338 332 333 327 331 330 343 337 346 345 336 327 315 312 322 317 314 305 274 290 285 264 260 267 303 266 34 7 336 341 348 309 16 279 168 213 211 238 208 220 192 191 193 193 198 215 209 202 203 211 212 209 212 218 214 220 202 205 205 203 229
334 333 333 335 334 337 336 336 336 339 338 340 329 326 324 319 307 334 351 347 317 347 353 336 337 336 337 335 324 345 311 21 347 343 331 337 344 321 328 329 324 319 316 305 298 265 262 289 280 321 311 331 31 7 334 344 350 359 347 320 317 285 203 207 213 203 192 187 190 192 189 202 207 207 202 205 211 208 200 211 201 230 194 209 203 205 135
329 329 331 331 332 334 334 333 334 334 335 336 332 333 311 349 324 350 332 348 299 348 332 313 340 322 339 324 330 319 316 332 352 345 325 7 334 330 323 335 327 318 335 309 289 270 256 258 277 298 279 299 160 53 318 346 351 346 325 303 301 255 249 215 226 227 205 217 250 214 196 192 209 201 207 198 211 211 210 210 218 209 201 221 211 233 122
324 324 325 328 329 331 331 330 331 330 328 337 327 307 312 327 316 347 332 328 341 339 321 346 333 327 339 303 331 319 318 338 298 19 307 7 326 310 359 338 345 325 331 330 308 293 283 261 264 262 290 322 320 356 314 339 10 320 298 329 306 251 243 226 224 241 242 341 308 343 247 204 205 209 202 206 202 212 208 209 212 197 206 218 186 234 159
318 319 320 323 324 324 326 327 324 327 323 325 316 319 337 324 342 326 353 306 315 318 322 329 314 310 303 298 319 327 303 329 326 331 323 323 14 334 220 347 346 322 324 320 308 318 317 302 341 341 347 319 299 250 168 322 36 313 349 325 295 282 232 228 230 230 237 252 345 315 261 218 213 212 209 205 204 203 213 210 213 200 216 215 180 202 230
315 315 318 318 319 316 320 321 317 320 321 322 316 313 332 317 319 312 332 302 314 303 308 304 300 297 297 314 297 284 312 324 338 330 319 318 74 22 324 346 339 326 315 315 309 327 323 335 345 6 331 327 310 285 171 180 31 332 343 326 341 285 236 238 225 227 236 223 243 282 266 230 268 262 214 207 206 203 208 214 210 213 210 226 187 189 212
310 311 312 314 313 313 312 314 310 310 322 314 318 313 315 328 329 321 318 305 299 296 297 294 291 290 309 288 306 335 311 313 323 320 319 315 16 28 321 326 334 327 314 307 300 308 312 322 325 319 325 310 338 340 20 360 357 331 345 333 34 302 173 16 280 244 233 228 221 226 248 255 256 231 231 208 205 209 204 210 211 212 216 208 211 166 204
306 308 308 309 310 308 308 305 304 296 331 325 326 312 304 313 316 314 306 307 310 313 295 295 299 292 283 277 323 320 311 310 323 308 313 310 328 311 316 317 311 306 301 289 286 292 297 297 296 306 298 302 311 312 333 331 324 314 336 342 333 266 307 303 250 232 239 219 216 212 237 245 231 228 223 250 222 207 201 207 205 207 210 212 209 209 203
304 304 305 306 306 304 302 304 294 244 241 292 296 297 316 308 310 296 302 294 300 299 298 291 286 276 6 341 304 296 308 302 309 306 308 291 281 235 267 296 300 286 286 292 295 299 288 287 288 294 292 280 275 279 287 296 297 301 307 325 301 347 313 244 199 233 232 215 218 216 223 241 241 234 223 217 217 253 218 212 207 217 220 211 219 215 206
302 302 302 302 303 302 307 307 302 262 250 280 283 282 302 299 308 301 285 287 291 291 301 298 285 308 307 296 299 298 299 307 299 296 303 301 301 299 279 293 292 294 286 304 319 296 280 275 278 275 274 280 280 278 268 266 265 272 281 295 297 311 285 285 223 223 219 214 202 214 222 226 223 212 223 225 222 212 219 204 204 208 213 228 220 227 191
300 300 299 299 300 302 306 303 294 279 235 269 249 267 268 285 282 284 278 283 292 305 299 295 304 302 294 301 292 292 294 297 304 300 290 296 301 295 291 291 286 278 312 313 292 288 288 279 268 261 257 257 260 263 269 269 264 256 262 271 294 312 295 252 232 262 211 141 145 199 219 228 200 230 225 230 237 241 236 239 229 220 216 227 230 230 240
297 297 297 298 303 307 304 303 295 290 258 243 240 257 253 249 271 279 288 282 278 302 302 302 305 297 292 292 295 293 297 300 294 289 287 289 289 288 291 298 295 292 317 302 295 297 294 290 282 274 263 248 242 250 253 247 245 256 269 265 264 266 261 254 241 255 294 212 179 209 222 296 225 193 242 270 233 221 230 239 237 240 241 232 236 234 233
295 297 301 307 308 308 306 303 300 285 280 226 229 240 238 223 242 262 256 278 281 287 300 297 293 299 305 304 301 301 296 286 292 297 286 281 291 298 294 284 298 307 290 294 290 285 282 276 284 240 227 229 236 238 232 237 243 250 240 238 241 252 273 274 247 229 246 238 200 207 112 115 202 160 185 189 218 210 221 231 223 227 231 238 245 238 233
304 305 306 308 308 308 305 303 297 291 288 237 225 231 223 220 205 235 250 262 271 285 291 285 299 309 311 303 304 302 294 300 297 288 309 303 279 282 297 294 287 290 300 294 292 287 281 300 282 262 229 214 211 221 214 226 216 221 232 231 228 222 246 210 271 216 228 235 207 213 218 219 190 203 153 182 204 231 227 235 242 210 224 224 228 239 348
305 306 307 308 309 308 306 304 298 293 291 265 238 233 215 208 205 215 228 238 283 286 276 290 314 310 302 300 303 301 304 306 306 307 293 289 307 304 293 297 292 296 287 275 277 283 278 270 263 243 221 214 227 225 211 203 215 199 211 216 215 217 218 260 231 235 212 228 228 215 223 221 256 179 174 181 127 165 108 182 223 148 202 137 230 227 233
306 307 308 309 310 308 306 304 298 295 292 276 253 221 218 199 194 204 217 232 235 248 284 298 302 295 295 290 290 298 330 312 328 310 311 307 323 314 289 308 300 268 261 275 262 269 271 253 260 275 261 318 263 219 227 207 206 189 186 200 209 207 210 205 223 237 222 216 218 222 214 200 188 197 163 151 154 79 215 196 198 135 166 83 174 225 181
308 309 310 310 310 308 308 306 301 298 295 291 278 222 221 198 197 177 209 225 242 268 262 275 287 292 292 323 303 301 294 285 278 290 284 309 299 304 328 306 295 299 275 258 277 267 258 261 278 288 283 350 297 304 241 185 202 202 181 190 190 202 203 209 220 215 225 231 224 227 222 263 351 133 120 96 198 180 205 199 113 93 85 80 70 201 38
309 310 311 312 312 312 310 309 304 302 302 294 287 251 223 198 188 193 199 215 226 247 254 275 301 292 290 290 277 291 288 293 296 290 292 294 321 334 306 294 297 279 41 310 320 266 263 284 22 316 293 256 283 262 285 268 277 325 203 184 200 197 199 207 220 221 215 212 227 226 236 201 193 113 178 133 166 194 169 18 319 27 101 58 35 25 13
310 310 311 312 313 313 310 311 310 304 300 298 294 263 209 183 187 183 190 222 227 251 263 271 283 284 285 280 284 278 279 267 269 278 285 284 337 323 308 254 45 333 278 242 249 315 301 274 293 256 248 268 3 325 272 252 249 255 239 221 217 196 198 203 203 213 227 224 218 216 219 143 269 217 197 173 240 70 335 330 308 258 325 115 41 1 11
311 311 312 313 315 314 313 310 308 304 301 304 302 281 242 194 193 198 199 200 226 258 271 251 253 264 277 284 285 287 282 282 286 281 286 289 316 312 285 345 340 303 315 317 321 328 294 320 321 306 16 325 326 302 277 287 249 228 233 227 250 354 241 205 206 202 218 214 218 220 226 35 27 281 227 37 31 5 359 323 322 341 328 27 347 353 351
311 312 313 314 314 313 313 312 309 302 300 306 304 280 254 195 196 196 199 199 222 232 255 287 295 281 274 273 274 270 271 271 271 273 281 281 276 272 291 292 290 289 313 318 292 335 18 311 284 318 326 307 257 256 308 291 266 180 209 206 228 178 258 347 287 265 252 248 231 32 332 345 332 323 30 21 14 347 359 326 329 334 347 350 335 335 329
311 313 314 314 314 314 313 312 311 307 303 310 309 272 266 177 199 190 176 215 223 249 265 271 272 272 270 270 264 258 256 254 258 256 248 260 272 259 263 270 273 289 294 298 305 316 309 309 304 335 316 299 318 299 283 262 266 305 255 217 265 63 292 327 276 263 279 278 272 268 279 314 281 261 338 348 329 325 337 348 342 353 342 342 337 334 330
312 313 314 314 315 315 314 314 314 314 311 306 300 294 274 202 170 167 193 216 233 252 259 252 263 269 272 268 260 233 229 233 244 248 233 236 256 262 252 247 274 286 270 284 325 296 305 301 303 323 294 303 307 273 273 264 271 302 277 241 232 241 224 239 256 260 294 269 283 255 257 284 342 311 322 304 289 318 332 340 345 338 336 337 341 335 328
314 315 315 316 316 316 314 316 319 317 313 306 303 286 254 199 164 176 193 210 209 225 257 278 251 263 267 278 283 275 261 251 223 229 237 231 240 259 274 359 319 292 294 313 300 283 278 285 287 269 284 306 292 287 288 285 280 330 275 255 249 233 249 272 254 263 256 260 282 281 294 314 297 292 283 288 298 304 318 335 327 327 325 326 334 333 325
315 316 317 317 317 316 318 317 319 318 314 305 302 286 243 217 165 185 200 237 317 177 253 266 275 279 305 290 267 265 274 255 240 235 230 234 240 247 262 276 270 263 279 282 281 279 282 275 274 274 279 290 280 279 282 292 288 275 270 273 264 301 222 246 235 253 254 251 258 269 290 289 286 282 278 274 307 337 332 320 321 318 318 323 325 328 318
316 317 317 317 317 318 318 319 318 315 310 295 277 258 240 194 163 182 197 190 214 240 227 255 264 266 261 269 275 260 246 237 238 241 240 232 236 242 252 259 265 267 268 272 270 271 267 273 275 277 278 294 304 284 287 281 278 272 265 259 239 234 234 242 250 248 244 246 245 236 246 255 249 249 251 296 339 322 319 317 309 313 315 318 317 317 317
318 318 318 318 317 318 319 319 320 314 301 279 264 251 220 201 186 197 205 201 217 247 301 302 295 317 315 279 272 259 238 242 243 237 234 234 228 231 238 243 248 257 260 268 271 256 261 263 266 281 279 276 281 276 272 274 274 271 261 254 238 243 244 242 241 238 244 237 240 248 266 275 289 307 310 311 311 319 310 302 303 304 305 308 306 306 312
317 318 318 316 316 317 319 322 319 317 302 271 219 169 161 216 188 204 215 214 233 262 280 283 293 285 280 352 265 235 227 238 226 230 234 233 233 229 232 238 246 251 261 265 270 281 277 277 284 281 278 320 304 281 292 278 261 254 254 255 249 254 264 255 261 274 267 263 265 276 276 270 277 282 285 293 300 296 296 292 290 291 292 296 297 300 304
317 318 317 315 316 317 321 320 317 289 250 219 166 183 222 165 188 204 208 218 211 242 268 281 286 301 337 302 283 278 261 226 231 230 231 233 236 233 232 232 238 241 248 251 261 268 276 282 280 276 279 284 268 280 275 281 276 271 271 266 262 247 237 241 240 243 252 262 271 272 272 277 271 268 272 280 288 288 284 285 286 287 288 291 293 293 290
317 317 315 316 316 320 324 327 309 210 230 208 188 207 260 360 121 198 192 209 195 225 247 260 270 304 293 261 287 279 263 248 242 237 239 238 237 235 225 224 231 233 234 243 248 257 274 270 278 282 289 277 279 277 277 282 281 285 280 276 268 262 260 256 253 255 261 265 264 262 261 257 258 261 261 266 266 263 265 268 272 274 274 278 279 282 285
318 316 316 316 320 324 330 333 109 218 203 154 328 7 11 17 36 108 162 199 169 215 235 272 284 267 298 311 310 297 267 255 257 251 248 238 238 224 224 219 232 215 232 238 248 264 252 258 265 274 274 291 289 269 270 268 267 267 273 279 285 286 284 278 269 262 256 252 254 255 252 251 250 255 263 262 263 261 262 264 267 271 269 268 269 269 275
317 316 319 319 323 337 10 76 173 259 79 73 84 95 69 72 91 121 153 155 171 220 289 272 279 303 286 352 327 320 328 334 281 265 259 216 235 205 234 211 224 230 209 235 219 243 239 246 254 260 263 279 269 264 261 254 250 256 269 284 288 286 282 279 278 271 261 254 248 253 254 253 255 255 259 265 264 262 261 264 268 268 268 266 264 264 263
317 321 316 319 326 286 144 148 136 139 140 148 174 108 125 115 120 100 146 187 64 26 301 288 295 306 312 323 278 46 1 334 320 22 336 38 359 281 210 212 202 242 185 219 230 242 254 269 262 276 294 265 269 272 259 256 258 267 269 269 268 270 270 270 266 266 263 262 255 250 253 255 261 265 264 261 262 261 261 264 261 259 257 259 260 256 265
319 319 322 288 278 175 172 164 163 201 44 64 55 60 118 156 146 166 177 144 184 197 213 264 296 302 321 332 319 26 11 335 318 345 311 15 226 303 114 240 85 210 189 203 249 238 269 259 349 292 255 276 266 251 260 278 283 282 283 280 277 276 276 272 265 261 260 255 254 256 257 251 249 249 250 251 253 252 251 253 254 254 251 249 250 252 266
324 322 277 130 170 195 184 218 271 292 159 39 45 91 134 148 152 171 138 31 349 342 307 330 327 292 313 317 334 357 356 319 336 330 331 310 307 51 52 128 244 222 219 182 238 239 239 55 220 258 59 239 246 247 276 287 284 278 270 266 267 264 260 261 265 263 261 263 262 258 255 254 253 251 247 246 244 243 241 246 249 243 239 241 238 236 224
323 338 157 191 199 222 214 42 58 39 10 65 96 110 126 129 115 143 77 293 170 341 311 282 283 274 267 299 292 296 334 325 355 319 19 10 340 271 84 262 265 26 301 258 260 261 259 248 252 275 262 253 278 286 280 276 273 270 265 260 256 255 258 259 256 256 256 253 252 251 250 249 248 246 242 236 234 234 235 236 238 236 231 226 212 158 235
311 194 196 189 213 307 38 45 32 77 106 116 131 130 166 210 124 166 184 239 198 170 145 159 249 289 283 278 349 9 309 321 330 319 34 46 322 32 92 322 336 332 293 299 266 322 285 256 239 260 288 282 286 295 312 316 318 321 308 280 270 252 244 255 258 248 243 243 241 240 243 243 241 231 226 230 231 232 233 233 231 228 224 202 145 165 214
270 197 214 247 9 39 19 42 98 188 217 147 189 233 196 188 200 224 201 212 166 222 165 209 261 217 232 265 286 306 336 329 337 9 4 63 349 40 17 360 62 332 283 277 279 91 299 283 283 308 303 320 335 343 334 332 335 341 338 332 328 331 303 247 228 228 228 230 235 234 234 230 224 220 219 225 227 229 224 222 222 219 192 141 135 191 151
225 242 356 42 39 55 96 134 146 171 179 231 204 241 307 156 278 8 144 214 184 186 194 292 207 217 211 253 332 2 39 303 352 5 348 9 109 353 335 321 10 324 320 332 353 40 357 342 355 335 354 346 348 339 339 343 347 351 352 353 7 21 28 16 347 199 218 232 242 252 255 251 236 222 215 216 216 213 211 208 212 181 156 159 169 181 149
9 344 2 32 40 343 78 137 168 162 227 313 336 34 8 17 23 344 320 13 20 27 175 325 174 220 198 232 222 298 90 234 291 305 298 333 96 231 351 9 330 314 348 6 350 270 330 348 4 15 3 351 349 344 346 353 359 1 6 9 19 22 16 32 45 46 62 51 279 246 234 213 209 211 208 213 208 201 196 182 183 172 181 160 178 155 138
4 339 343 280 284 283 214 210 327 3 32 13 347 348 11 21 349 23 24 9 14 346 349 330 357 355 2 191 302 273 268 175 279 273 299 356 43 349 354 303 175 7 28 347 330 341 352 18 12 12 350 352 347 347 358 8 6 8 11 15 22 25 30 35 42 45 39 35 25 34 28 19 17 67 169 198 211 193 162 151 136 145 151 148 144 144 160
238 244 265 262 222 200 277 25 3 48 5 353 354 360 358 20 17 358 12 17 336 320 346 312 344 236 121 192 199 211 341 127 270 211 249 5 111 191 1 21 359 30 353 325 359 351 14 16 12 2 342 346 353 356 360 7 9 15 19 19 23 26 31 37 41 43 45 39 39 44 30 28 35 28 353 240 111 114 114 113 104 89 126 118 116 122 112
207 230 238 316 358 11 323 27 318 43 30 25 14 10 349 13 18 16 24 7 323 339 357 351 349 344 55 63 1 127 200 197 195 244 56 20 323 6 14 24 34 282 228 44 12 21 2 12 3 349 349 348 355 355 355 2 7 12 25 26 26 28 30 32 32 33 32 36 41 45 43 35 30 23 18 52 75 84 95 103 90 84 84 75 79 83 88
352 18 5 6 36 7 36 18 315 33 12 26 13 23 6 8 17 29 19 342 355 339 333 336 344 344 14 68 199 19 5 17 175 331 32 349 48 34 35 9 352 34 33 32 29 14 9 17 350 355 348 350 354 355 353 357 3 14 15 29 36 37 32 30 30 34 34 35 38 43 41 35 31 37 48 43 50 46 47 56 58 66 63 73 74 74 81
23 355 12 22 23 4 54 69 14 30 35 21 22 13 18 22 9 19 25 339 349 4 7 352 345 348 16 2 20 21 9 9 29 19 8 33 45 44 41 65 27 40 44 42 42 34 16 353 347 346 338 346 344 355 359 4 4 13 19 27 27 32 36 35 30 31 32 35 39 43 42 39 34 38 49 46 54 52 43 49 56 67 60 55 61 66 65
64 13 10 349 30 43 31 39 38 36 21 26 29 24 23 23 27 17 3 332 357 34 7 29 29 19 15 351 353 46 21 14 34 15 355 47 38 69 50 46 39 21 31 31 29 24 7 351 341 331 340 353 3 8 6 2 8 15 20 24 24 26 29 35 35 36 34 32 36 35 35 35 36 34 40 47 51 49 42 47 50 61 57 57 63 62 63
52 323 1 37 47 31 34 40 35 39 32 21 16 18 30 22 18 19 6 352 340 359 360 333 348 330 49 37 18 27 22 24 34 44 29 50 57 39 41 45 57 66 50 41 47 38 27 358 355 2 13 17 17 17 18 16 11 14 21 23 23 23 23 27 33 37 37 38 36 36 38 34 37 37 36 43 45 41 40 43 45 56 57 52 55 57 60
24 351 34 68 44 38 33 23 19 40 31 28 17 13 11 16 17 10 360 349 358 3 338 339 359 333 20 7 24 27 35 12 36 37 27 46 43 41 36 31 12 55 59 53 51 46 42 24 25 29 27 27 27 29 30 28 28 24 19 22 25 25 26 29 30 29 35 40 38 36 37 40 42 42 45 45 46 42 41 41 44 50 53 53 53 58 62
39 43 14 28 43 41 29 29 17 30 21 22 17 16 5 13 5 15 356 349 355 350 349 68 27 6 18 355 35 34 36 25 35 29 35 43 36 37 40 50 34 21 32 16 7 27 39 39 33 30 25 29 32 30 30 33 34 36 34 31 27 25 27 30 34 37 38 38 37 39 41 39 37 45 52 52 52 50 46 42 41 45 46 48 49 49 56
34 63 60 27 26 31 14 29 18 18 17 16 11 14 359 11 2 2 359 346 355 10 20 15 21 29 21 26 11 24 37 16 45 43 35 30 10 18 24 15 357 348 15 46 4 24 39 29 15 22 30 29 29 28 29 30 33 38 41 39 35 33 33 34 36 38 37 34 34 36 38 40 39 38 41 46 49 46 45 42 41 44 46 45 47 52 55
43 42 40 47 37 31 21 24 27 21 19 15 9 11 2 11 3 360 350 358 8 13 21 12 12 25 27 29 26 22 16 27 38 36 46 51 23 14 12 2 347 344 348 2 15 26 32 27 17 24 28 28 25 25 24 27 29 30 33 37 37 35 36 37 37 38 39 40 39 37 36 36 40 44 43 43 44 45 43 43 40 43 48 51 55 58 60